| time (UTC) | temp F | wind direction | speed MPH | gust MPH | rain 1hr in | rain 24hr in | rain mn in | humidity % | barometer mb |
| 20260509013042 | 67 | 0 | 1.0 | 4.0 | 0.00 | 0.00 | 0.00 | 79 | 1012.4 |
| 20260509011536 | 67 | 287 | 2.0 | 6.0 | 0.00 | 0.00 | 0.00 | 78 | 1012.3 |
| 20260509010040 | 68 | 279 | 1.0 | 5.0 | 0.00 | 0.00 | 0.00 | 77 | 1012.3 |
| 20260509004553 | 69 | 265 | 1.0 | 6.0 | 0.00 | 0.00 | 0.00 | 76 | 1012.3 |
| 20260509003042 | 70 | 327 | 1.0 | 4.0 | 0.00 | 0.00 | 0.00 | 74 | 1012.2 |
| 20260509001538 | 70 | 262 | 0.0 | 7.0 | 0.00 | 0.00 | 0.00 | 74 | 1012.3 |
| 20260509000046 | 69 | 306 | 2.0 | 10.0 | 0.00 | 0.00 | 0.00 | 75 | 1012.4 |
| 20260508234542 | 70 | 274 | 1.0 | 7.0 | 0.00 | 0.00 | 0.00 | 74 | 1012.5 |
| 20260508233041 | 71 | 271 | 2.0 | 8.0 | 0.00 | 0.00 | 0.00 | 72 | 1012.7 |
| 20260508231545 | 72 | 0 | 2.0 | 6.0 | 0.00 | 0.00 | 0.00 | 70 | 1012.9 |
| 20260508230036 | 71 | 243 | 2.0 | 8.0 | 0.00 | 0.00 | 0.00 | 72 | 1013.0 |
| 20260508224558 | 70 | 238 | 2.0 | 9.0 | 0.00 | 0.00 | 0.00 | 73 | 1013.2 |
| 20260508223040 | 72 | 255 | 4.0 | 9.0 | 0.00 | 0.00 | 0.00 | 71 | 1013.2 |
| 20260508221548 | 72 | 5 | 2.0 | 8.0 | 0.00 | 0.00 | 0.00 | 72 | 1013.3 |
| 20260508220040 | 72 | 300 | 2.0 | 10.0 | 0.00 | 0.00 | 0.00 | 71 | 1013.5 |
| 20260508214540 | 72 | 196 | 2.0 | 9.0 | 0.00 | 0.00 | 0.00 | 70 | 1013.6 |
| 20260508213044 | 73 | 229 | 4.0 | 9.0 | 0.00 | 0.00 | 0.00 | 69 | 1013.5 |
| 20260508211548 | 73 | 290 | 3.0 | 8.0 | 0.00 | 0.00 | 0.00 | 68 | 1013.6 |
| 20260508210041 | 74 | 253 | 3.0 | 9.0 | 0.00 | 0.00 | 0.00 | 68 | 1013.5 |
| 20260508204541 | 74 | 235 | 2.0 | 8.0 | 0.00 | 0.00 | 0.00 | 67 | 1013.6 |
| 20260508203039 | 75 | 335 | 1.0 | 10.0 | 0.00 | 0.00 | 0.00 | 66 | 1013.5 |
| 20260508201541 | 75 | 352 | 2.0 | 8.0 | 0.00 | 0.00 | 0.00 | 67 | 1013.6 |
| 20260508200047 | 74 | 276 | 2.0 | 4.0 | 0.00 | 0.00 | 0.00 | 67 | 1013.6 |
| 20260508194541 | 73 | 216 | 2.0 | 8.0 | 0.00 | 0.00 | 0.00 | 70 | 1013.9 |
| 20260508193049 | 73 | 252 | 3.0 | 7.0 | 0.00 | 0.00 | 0.00 | 70 | 1014.1 |
| 20260508191540 | 75 | 275 | 2.0 | 8.0 | 0.00 | 0.00 | 0.00 | 68 | 1014.2 |
| 20260508190039 | 73 | 171 | 2.0 | 7.0 | 0.00 | 0.00 | 0.00 | 69 | 1014.4 |
| 20260508184543 | 71 | 275 | 1.0 | 7.0 | 0.00 | 0.00 | 0.00 | 73 | 1014.5 |
| 20260508183053 | 0 | 0.0 | 0.0 | 0.00 | 0.00 | 0.00 | 1014.6 | ||
| 20260508181548 | 0 | 0.0 | 0.0 | 0.00 | 0.00 | 0.00 | 1014.7 | ||
| 20260508180037 | 68 | 247 | 1.0 | 6.0 | 0.00 | 0.00 | 0.00 | 79 | 1014.9 |
| 20260508174540 | 65 | 0 | 0.0 | 3.0 | 0.00 | 0.00 | 0.00 | 82 | 1014.9 |
| 20260508173042 | 64 | 0 | 0.0 | 3.0 | 0.00 | 0.00 | 0.00 | 84 | 1015.1 |
| 20260508171547 | 64 | 284 | 1.0 | 3.0 | 0.00 | 0.00 | 0.00 | 84 | 1015.0 |
| 20260508170039 | 63 | 0 | 0.0 | 2.0 | 0.00 | 0.00 | 0.00 | 85 | 1015.1 |
| 20260508164539 | 63 | 0 | 0.0 | 3.0 | 0.00 | 0.00 | 0.00 | 86 | 1015.1 |
| 20260508163039 | 62 | 0 | 0.0 | 0.0 | 0.00 | 0.00 | 0.00 | 87 | 1015.1 |
| 20260508161543 | 62 | 0 | 0.0 | 3.0 | 0.00 | 0.00 | 0.00 | 88 | 1015.3 |
| 20260508160041 | 61 | 237 | 0.0 | 2.0 | 0.00 | 0.00 | 0.00 | 89 | 1015.2 |
| 20260508154539 | 61 | 0 | 0.0 | 2.0 | 0.00 | 0.00 | 0.00 | 89 | 1015.3 |
| 20260508153040 | 61 | 0 | 0.0 | 3.0 | 0.00 | 0.00 | 0.00 | 89 | 1015.3 |
| 20260508151544 | 61 | 128 | 0.0 | 2.0 | 0.00 | 0.00 | 0.00 | 89 | 1015.4 |
| 20260508150041 | 61 | 0 | 0.0 | 2.0 | 0.00 | 0.00 | 0.00 | 89 | 1015.3 |
| 20260508144547 | 61 | 315 | 0.0 | 2.0 | 0.00 | 0.00 | 0.00 | 89 | 1015.2 |
| 20260508143047 | 61 | 0 | 0.0 | 1.0 | 0.00 | 0.00 | 0.00 | 90 | 1015.3 |
| 20260508141540 | 61 | 0 | 0.0 | 2.0 | 0.00 | 0.00 | 0.00 | 90 | 1015.2 |
| 20260508140044 | 60 | 88 | 0.0 | 3.0 | 0.00 | 0.00 | 0.00 | 90 | 1015.0 |
| 20260508134536 | 60 | 0 | 0.0 | 0.0 | 0.00 | 0.00 | 0.00 | 90 | 1015.0 |
| 20260508133043 | 60 | 75 | 0.0 | 1.0 | 0.00 | 0.00 | 0.00 | 91 | 1014.9 |
| 20260508131540 | 60 | 0 | 0.0 | 1.0 | 0.00 | 0.00 | 0.00 | 90 | 1014.7 |
| 20260508130038 | 60 | 223 | 0.0 | 0.0 | 0.00 | 0.00 | 0.00 | 90 | 1014.6 |
| 20260508124609 | 60 | 0 | 0.0 | 1.0 | 0.00 | 0.00 | 0.00 | 90 | 1014.6 |
| 20260508123036 | 60 | 0 | 0.0 | 0.0 | 0.00 | 0.00 | 0.00 | 90 | 1014.6 |
| 20260508121546 | 60 | 0 | 0.0 | 2.0 | 0.00 | 0.00 | 0.00 | 90 | 1014.6 |
| 20260508120042 | 60 | 0 | 0.0 | 2.0 | 0.00 | 0.00 | 0.00 | 90 | 1014.6 |
| 20260508114539 | 60 | 0 | 0.0 | 1.0 | 0.00 | 0.00 | 0.00 | 90 | 1014.5 |
| 20260508113103 | 60 | 0 | 0.0 | 2.0 | 0.00 | 0.00 | 0.00 | 90 | 1014.6 |
| 20260508111536 | 60 | 0 | 0.0 | 0.0 | 0.00 | 0.00 | 0.00 | 90 | 1014.5 |
| 20260508110040 | 60 | 0 | 0.0 | 0.0 | 0.00 | 0.00 | 0.00 | 90 | 1014.5 |
| 20260508104553 | 60 | 0 | 0.0 | 4.0 | 0.00 | 0.00 | 0.00 | 90 | 1014.5 |
| 20260508103041 | 60 | 0 | 0.0 | 2.0 | 0.00 | 0.00 | 0.00 | 90 | 1014.6 |
| 20260508101543 | 60 | 293 | 0.0 | 2.0 | 0.00 | 0.00 | 0.00 | 90 | 1014.7 |
| 20260508100039 | 60 | 0 | 0.0 | 2.0 | 0.00 | 0.00 | 0.00 | 90 | 1014.8 |
| 20260508094540 | 60 | 275 | 0.0 | 0.0 | 0.00 | 0.00 | 0.00 | 90 | 1014.6 |
| 20260508093039 | 60 | 0 | 0.0 | 0.0 | 0.00 | 0.00 | 0.00 | 90 | 1014.6 |
| 20260508091542 | 60 | 0 | 0.0 | 2.0 | 0.00 | 0.00 | 0.00 | 90 | 1014.6 |
| 20260508090045 | 60 | 258 | 0.0 | 2.0 | 0.00 | 0.00 | 0.00 | 90 | 1014.7 |
| 20260508084539 | 61 | 0 | 0.0 | 4.0 | 0.00 | 0.00 | 0.00 | 89 | 1014.9 |
| 20260508083039 | 61 | 273 | 0.0 | 2.0 | 0.00 | 0.00 | 0.00 | 89 | 1014.9 |
| 20260508081539 | 60 | 273 | 0.0 | 2.0 | 0.00 | 0.00 | 0.00 | 90 | 1015.1 |
| 20260508080040 | 61 | 246 | 0.0 | 3.0 | 0.00 | 0.00 | 0.00 | 89 | 1015.2 |
| 20260508074539 | 61 | 112 | 0.0 | 3.0 | 0.00 | 0.00 | 0.00 | 89 | 1015.2 |
| 20260508073040 | 61 | 0 | 1.0 | 3.0 | 0.00 | 0.00 | 0.00 | 89 | 1015.3 |
| 20260508071542 | 61 | 0 | 0.0 | 1.0 | 0.00 | 0.00 | 0.00 | 89 | 1015.2 |
| 20260508070045 | 61 | 0 | 0.0 | 2.0 | 0.00 | 0.00 | 0.00 | 89 | 1015.3 |
| 20260508064558 | 61 | 263 | 1.0 | 2.0 | 0.00 | 0.00 | 0.00 | 89 | 1015.3 |
| 20260508063039 | 61 | 288 | 0.0 | 4.0 | 0.00 | 0.00 | 0.00 | 89 | 1015.5 |
| 20260508061552 | 61 | 248 | 1.0 | 3.0 | 0.00 | 0.00 | 0.00 | 89 | 1015.5 |
| 20260508060048 | 61 | 269 | 0.0 | 3.0 | 0.00 | 0.00 | 0.00 | 89 | 1015.5 |
| 20260508054604 | 61 | 0 | 0.0 | 2.0 | 0.00 | 0.00 | 0.00 | 89 | 1015.4 |
| 20260508053040 | 61 | 0 | 0.0 | 0.0 | 0.00 | 0.00 | 0.00 | 89 | 1015.5 |
| 20260508051541 | 61 | 0 | 0.0 | 1.0 | 0.00 | 0.00 | 0.00 | 89 | 1015.5 |
| 20260508050039 | 61 | 241 | 0.0 | 2.0 | 0.00 | 0.00 | 0.00 | 88 | 1015.5 |
| 20260508044539 | 61 | 241 | 0.0 | 2.0 | 0.00 | 0.00 | 0.00 | 89 | 1015.3 |
| 20260508043048 | 61 | 241 | 0.0 | 3.0 | 0.00 | 0.00 | 0.00 | 88 | 1015.2 |
| 20260508041539 | 61 | 0 | 0.0 | 1.0 | 0.00 | 0.00 | 0.00 | 89 | 1014.9 |
| 20260508040048 | 61 | 206 | 0.0 | 4.0 | 0.00 | 0.00 | 0.00 | 89 | 1014.7 |
| 20260508034541 | 61 | 267 | 0.0 | 4.0 | 0.00 | 0.00 | 0.00 | 89 | 1014.6 |
| 20260508033041 | 60 | 0 | 0.0 | 0.0 | 0.00 | 0.00 | 0.00 | 90 | 1014.4 |
| 20260508031550 | 60 | 0 | 0.0 | 0.0 | 0.00 | 0.00 | 0.00 | 89 | 1014.2 |
| 20260508030039 | 60 | 0 | 0.0 | 1.0 | 0.00 | 0.00 | 0.00 | 88 | 1014.0 |
| 20260508024539 | 61 | 252 | 0.0 | 3.0 | 0.00 | 0.00 | 0.00 | 86 | 1014.0 |
| 20260508023039 | 62 | 0 | 0.0 | 2.0 | 0.00 | 0.00 | 0.00 | 85 | 1013.9 |
| 20260508021540 | 62 | 0 | 0.0 | 3.0 | 0.00 | 0.00 | 0.00 | 84 | 1013.7 |
| 20260508020040 | 63 | 0 | 1.0 | 3.0 | 0.00 | 0.00 | 0.00 | 83 | 1013.7 |
| 20260508014540 | 64 | 261 | 1.0 | 4.0 | 0.00 | 0.00 | 0.00 | 82 | 1013.5 |